Regional Weather Roundup
Issued by NWS Little Rock, AR

Home | Current Version | Previous Version | Text Only | Print | Product List | Glossary Off
Versions: 1 2 3 4 5 6 7 8 9 10 11 12 13 14 15 16 17 18 19 20 21 22 23 24 25 26 27 28 29 30 31 32 33 34 35 36 37 38 39 40 41 42 43 44 45 46 47 48 49 50

000
ASUS44 KLZK 302005
RWRLZK

WEATHER ROUNDUP FOR ARKANSAS
NATIONAL WEATHER SERVICE LITTLE ROCK AR
200 PM CST FRI JAN 30 2015

NOTE: "FAIR" INDICATES FEW OR NO CLOUDS BELOW 12,000 FEET WITH NO
SIGNIFICANT WEATHER AND/OR OBSTRUCTIONS TO VISIBILITY.

ARZ001-003-010-029-302100-
NORTHWEST ARKANSAS

CITY           SKY/WX    TMP DP  RH WIND       PRES   REMARKS
FAYETTEVILLE   PTSUNNY   45  22  40 CALM      30.43F
FORT SMITH     MOSUNNY   48  27  44 NE8       30.44F
HARRISON       MOSUNNY   42  19  39 SE5       30.44F
BENTONVILLE    PTSUNNY   45  19  36 CALM      30.44F
ROGERS         MOSUNNY   44  17  33 E6        30.44F
SILOAM SPGS    PTSUNNY  N/A N/A N/A E6        30.44F
HIGHFILL       PTSUNNY   46  22  38 E5        30.43F
SPRINGDALE     SUNNY     45  19  36 CALM      30.45F
$$

ARZ004-005-016-302100-
NORTH CENTRAL ARKANSAS

CITY           SKY/WX    TMP DP  RH WIND       PRES   REMARKS
BATESVILLE     MOSUNNY   48  21  34 E5        30.46F
FLIPPIN        MOSUNNY   45  18  33 CALM      30.46F
MTN HOME       SUNNY     46  15  28 VRB3      30.44F
$$

ARZ040-041-302100-
WEST CENTRAL ARKANSAS

CITY           SKY/WX    TMP DP  RH WIND       PRES   REMARKS
MENA           MOSUNNY   54  19  26 E8        30.41F
MOUNT IDA      SUNNY     51  21  30 E5        30.41F
$$

ARZ009-017-025-026-028-302100-
NORTHEAST ARKANSAS

CITY           SKY/WX    TMP DP  RH WIND       PRES   REMARKS
CORNING        FAIR      41  27  56 NE7       30.49F
JONESBORO      SUNNY     43  26  51 E8        30.47F
NEWPORT        SUNNY     44  27  51 NE3       30.49F
WALNUT RIDGE   SUNNY     45  27  49 NE7       30.47F
BLYTHEVILLE    SUNNY     47  25  42 NE9       30.45F
$$

ARZ022-023-033-042-044-302100-
CENTRAL ARKANSAS

CITY           SKY/WX    TMP DP  RH WIND       PRES   REMARKS
LITTLE ROCK    PTSUNNY   50  23  34 NE9       30.46F
N LITTLE ROCK  PTSUNNY   49  29  46 N3        30.46F
JACKSONVILLE   MOSUNNY   49  26  41 NE6       30.45F
SEARCY         PTSUNNY   48  25  40 VRB5      30.48F
HOT SPRINGS    MOSUNNY   52  26  36 VRB5      30.44F
RUSSELLVILLE   PTSUNNY   48  25  40 VRB3      30.45F
CLINTON        FAIR      48  23  37 CALM      30.47F
$$

ARZ036-302100-
EAST ARKANSAS

CITY           SKY/WX    TMP DP  RH WIND       PRES   REMARKS
WEST MEMPHIS   SUNNY     48  25  40 CALM      30.45F
$$

ARZ050-053-066-070-073-302100-
SOUTHWEST ARKANSAS

CITY           SKY/WX    TMP DP  RH WIND       PRES   REMARKS
ARKADELPHIA    FAIR      51  32  48 N8        30.45F
CAMDEN         SUNNY     55  27  33 MISG      30.45F
TEXARKANA      SUNNY     51  29  42 VRB3      30.43F
EL DORADO      SUNNY     53  29  39 N10       30.44S
DE QUEEN       MOSUNNY   54  28  36 E8        30.41F
$$

ARZ056-057-069-302100-
SOUTHEAST ARKANSAS

CITY           SKY/WX    TMP DP  RH WIND       PRES   REMARKS
PINE BLUFF     SUNNY     48  29  47 N10       30.46F
STUTTGART      SUNNY     48  27  43 N10       30.47F
MONTICELLO     SUNNY     50  29  44 N8        30.44F

$$




USA.gov is the U.S. government's official web portal to all federal, state and local government web resources and services.